Home   Weather   Bahrain   Manama   Past weeks
Flag for Bahrain

Past Weather in Manama, Bahrain — Yesterday and Last 2 Weeks

Currently: 82 °F. Sunny. (Weather station: Bahrain International Airport, Bahrain). See more current weather

Past Weather in Manama — Graph

°F

Manama Temperature Yesterday

Maximum temperature yesterday: 93 °F (at 12:00 pm)
Minimum temperature yesterday: 82 °F (at 2:30 am)
Average temperature yesterday: 86 °F

High & Low Weather Summary for the Past Weeks

  Temperature Humidity Pressure
High 102 °F (May 5, 11:00 am) 78% (Apr 24, 6:00 am) 29.92 "Hg (Apr 24, 6:00 am)
Low 73 °F (Apr 24, 5:00 am) 14% (May 5, 11:00 am) 29.65 "Hg (May 5, 12:30 am)
Average 85 °F 49% 29.77 "Hg
* Reported Apr 24 5:00 am — May 9 5:30 am, Manama. Weather by CustomWeather, © 2026

Note: Actual official high and low records may vary slightly from our data, if they occured in-between our weather recording intervals... More about our weather records

Manama Weather History for the Previous 24 Hours

Scroll right to see more
  Conditions Comfort    
Time   Temp Weather Wind   Humidity Barometer Visibility
5:30 am
Sat, May 9
82 °F Sunny. 9 mph 51% 29.83 "Hg 10 mi
5:00 am 82 °F Sunny. 12 mph 51% 29.80 "Hg 10 mi
4:30 am 82 °F Clear. 14 mph 55% 29.80 "Hg 10 mi
4:00 am 82 °F Clear. 18 mph 55% 29.80 "Hg 10 mi
3:30 am 82 °F Clear. 22 mph 55% 29.80 "Hg 10 mi
3:00 am 82 °F Clear. 21 mph 58% 29.80 "Hg 10 mi
2:30 am 84 °F Clear. 14 mph 55% 29.80 "Hg 10 mi
2:00 am 82 °F Clear. 12 mph 58% 29.80 "Hg 10 mi
1:30 am 82 °F Clear. 12 mph 58% 29.80 "Hg 10 mi
1:00 am 82 °F Clear. 14 mph 62% 29.80 "Hg 10 mi
12:30 am 82 °F Clear. 15 mph 58% 29.80 "Hg 10 mi
12:00 am 84 °F Clear. 15 mph 55% 29.80 "Hg 10 mi
11:30 pm
Fri, May 8
82 °F Clear. 15 mph 58% 29.80 "Hg 10 mi
11:00 pm 84 °F Clear. 14 mph 55% 29.80 "Hg 10 mi
10:30 pm 84 °F Clear. 13 mph 55% 29.80 "Hg 10 mi
10:00 pm 84 °F Clear. 12 mph 55% 29.80 "Hg 10 mi
9:30 pm 84 °F Clear. 12 mph 55% 29.80 "Hg 10 mi
9:00 pm 84 °F Clear. 12 mph 51% 29.80 "Hg 10 mi
8:30 pm 84 °F Clear. 13 mph 51% 29.80 "Hg 10 mi
7:30 pm 84 °F Clear. 12 mph 51% 29.80 "Hg 10 mi
7:00 pm 84 °F Clear. 14 mph 55% 29.80 "Hg 10 mi
6:30 pm 84 °F Clear. 17 mph 55% 29.77 "Hg 10 mi
6:00 pm 84 °F Sunny. 21 mph 58% 29.77 "Hg 10 mi
5:30 pm 84 °F Sunny. 22 mph 58% 29.77 "Hg 10 mi
5:00 pm 84 °F Sunny. 25 mph 58% 29.77 "Hg 10 mi
4:30 pm 86 °F Sunny. 25 mph 59% 29.77 "Hg 10 mi
4:00 pm 86 °F Sunny. 25 mph 62% 29.74 "Hg 10 mi
3:30 pm 86 °F Sunny. 24 mph 62% 29.77 "Hg 10 mi
3:00 pm 90 °F Sunny. 17 mph 49% 29.74 "Hg 10 mi
2:30 pm 91 °F Sunny. 14 mph 44% 29.74 "Hg 10 mi
2:00 pm 90 °F Sunny. 17 mph 43% 29.77 "Hg 10 mi
1:30 pm 90 °F Sunny. 18 mph 46% 29.77 "Hg 10 mi
1:00 pm 88 °F Sunny. 18 mph 52% 29.77 "Hg 10 mi
12:30 pm 90 °F Sunny. 18 mph 49% 29.80 "Hg 10 mi
12:00 pm 93 °F Sunny. 15 mph 36% 29.80 "Hg 10 mi
11:30 am 90 °F Sunny. 15 mph 46% 29.80 "Hg 10 mi
11:00 am 90 °F Sunny. 16 mph 46% 29.80 "Hg 10 mi
10:30 am 88 °F Sunny. 18 mph 49% 29.80 "Hg 10 mi
10:00 am 90 °F Sunny. 15 mph 46% 29.80 "Hg 10 mi
9:30 am 88 °F Sunny. 17 mph 49% 29.80 "Hg 10 mi
9:00 am 88 °F Sunny. 17 mph 49% 29.80 "Hg 10 mi
8:30 am 88 °F Sunny. 17 mph 49% 29.80 "Hg 10 mi
8:00 am 86 °F Sunny. 17 mph 55% 29.80 "Hg 10 mi
7:30 am 86 °F Sunny. 16 mph 59% 29.80 "Hg 10 mi
7:00 am 86 °F Sunny. 15 mph 52% 29.80 "Hg 10 mi
6:30 am 84 °F Sunny. 14 mph 58% 29.80 "Hg 10 mi
6:00 am 82 °F Sunny. 14 mph 62% 29.80 "Hg 10 mi
Weather by CustomWeather, © 2026

See weather overview